Hourly Weather Chal

Today, 15 June, Tuesday

Time Temperature Precipitation Wind Pressure Humidity
00:00 +16°C° 0 mm 1 mps 742 mmHg 92%
01:00 +14°C° 0 mm 0 mps 742 mmHg 92%
02:00 +14°C° 0 mm 0 mps 742 mmHg 92%
03:00 +15°C° 0 mm 0 mps 742 mmHg 91%
04:00 +15°C° 0 mm 0 mps 742 mmHg 90%
05:00 +16°C° 0 mm 0 mps 742 mmHg 89%
06:00 +18°C° 0 mm 0 mps 742 mmHg 83%
07:00 +19°C° 0 mm 0 mps 742 mmHg 77%
08:00 +21°C° 0 mm 0 mps 742 mmHg 71%
09:00 +24°C° 0.1 mm 1 mps 742 mmHg 67%
10:00 +25°C° 0.1 mm 1 mps 741 mmHg 62%
11:00 +26°C° 0.1 mm 2 mps 741 mmHg 58%
12:00 +25°C° 0.3 mm 2 mps 741 mmHg 60%
13:00 +25°C° 0.3 mm 2 mps 741 mmHg 61%
14:00 +24°C° 0 mm 3 mps 740 mmHg 69%
15:00 +24°C° 0.5 mm 2 mps 740 mmHg 73%
16:00 +23°C° 0.5 mm 2 mps 740 mmHg 78%
17:00 +23°C° 0.5 mm 2 mps 739 mmHg 82%
18:00 +21°C° 0.2 mm 2 mps 739 mmHg 84%
19:00 +20°C° 0.2 mm 1 mps 739 mmHg 86%
20:00 +19°C° 0.2 mm 1 mps 739 mmHg 88%
21:00 +18°C° 0 mm 1 mps 739 mmHg 88%
22:00 +16°C° 0 mm 1 mps 739 mmHg 89%
23:00 +16°C° 0 mm 1 mps 739 mmHg 90%

Tomorrow, 16 June, Wednesday

Time Temperature Precipitation Wind Pressure Humidity
00:00 +15°C° 0 mm 1 mps 739 mmHg 91%
01:00 +14°C° 0 mm 2 mps 739 mmHg 92%
02:00 +14°C° 0 mm 2 mps 740 mmHg 93%
03:00 +14°C° 0 mm 2 mps 740 mmHg 93%
04:00 +14°C° 0 mm 2 mps 740 mmHg 93%
05:00 +14°C° 0 mm 2 mps 740 mmHg 93%
06:00 +16°C° 0 mm 2 mps 741 mmHg 87%
07:00 +17°C° 0 mm 3 mps 741 mmHg 81%
08:00 +19°C° 0 mm 3 mps 741 mmHg 75%
09:00 +20°C° 0 mm 3 mps 742 mmHg 68%
10:00 +21°C° 0 mm 3 mps 742 mmHg 62%
11:00 +22°C° 0 mm 4 mps 742 mmHg 55%
12:00 +22°C° 0 mm 4 mps 742 mmHg 52%
13:00 +23°C° 0 mm 4 mps 742 mmHg 48%
14:00 +23°C° 0 mm 4 mps 743 mmHg 45%
15:00 +23°C° 0 mm 4 mps 743 mmHg 49%
16:00 +22°C° 0 mm 3 mps 743 mmHg 52%
17:00 +22°C° 0 mm 3 mps 743 mmHg 56%
18:00 +20°C° 0 mm 2 mps 744 mmHg 62%
19:00 +18°C° 0 mm 2 mps 744 mmHg 68%
20:00 +16°C° 0 mm 1 mps 744 mmHg 74%
21:00 +16°C° 0 mm 1 mps 745 mmHg 74%
22:00 +15°C° 0 mm 1 mps 745 mmHg 75%
23:00 +14°C° 0 mm 2 mps 745 mmHg 76%

Day after tomorrow, 17 June, Thursday

Time Temperature Precipitation Wind Pressure Humidity
00:00 +13°C° 0 mm 2 mps 746 mmHg 76%
01:00 +13°C° 0 mm 2 mps 746 mmHg 76%
02:00 +12°C° 0 mm 2 mps 747 mmHg 76%
03:00 +13°C° 0 mm 2 mps 747 mmHg 75%
04:00 +13°C° 0 mm 1 mps 747 mmHg 74%
05:00 +13°C° 0 mm 1 mps 748 mmHg 74%
06:00 +16°C° 0 mm 1 mps 748 mmHg 66%
07:00 +19°C° 0 mm 1 mps 748 mmHg 59%
08:00 +21°C° 0 mm 1 mps 749 mmHg 51%
09:00 +22°C° 0 mm 1 mps 749 mmHg 47%
10:00 +23°C° 0 mm 1 mps 749 mmHg 43%
11:00 +24°C° 0 mm 1 mps 749 mmHg 39%
12:00 +25°C° 0 mm 1 mps 749 mmHg 39%
13:00 +25°C° 0 mm 2 mps 749 mmHg 39%
14:00 +25°C° 0 mm 2 mps 749 mmHg 39%
15:00 +25°C° 0 mm 2 mps 749 mmHg 44%
16:00 +24°C° 0 mm 2 mps 749 mmHg 48%
17:00 +24°C° 0 mm 2 mps 749 mmHg 52%
18:00 +22°C° 0 mm 1 mps 749 mmHg 59%
19:00 +20°C° 0 mm 1 mps 749 mmHg 67%
20:00 +18°C° 0 mm 1 mps 750 mmHg 74%
21:00 +16°C° 0 mm 1 mps 750 mmHg 75%
22:00 +16°C° 0 mm 1 mps 750 mmHg 76%
23:00 +15°C° 0 mm 1 mps 750 mmHg 77%

18 June, Friday

Time Temperature Precipitation Wind Pressure Humidity
00:00 +14°C° 0 mm 1 mps 750 mmHg 78%
01:00 +14°C° 0 mm 1 mps 750 mmHg 79%
02:00 +13°C° 0 mm 1 mps 751 mmHg 81%
03:00 +14°C° 0 mm 1 mps 751 mmHg 80%
04:00 +14°C° 0 mm 0 mps 751 mmHg 79%
05:00 +15°C° 0 mm 0 mps 751 mmHg 78%
06:00 +17°C° 0 mm 0 mps 751 mmHg 71%
07:00 +21°C° 0 mm 1 mps 751 mmHg 65%
08:00 +23°C° 0 mm 1 mps 752 mmHg 58%
09:00 +24°C° 0 mm 1 mps 752 mmHg 54%
10:00 +25°C° 0 mm 1 mps 752 mmHg 49%
11:00 +26°C° 0 mm 1 mps 752 mmHg 45%
12:00 +27°C° 0 mm 1 mps 751 mmHg 44%
13:00 +27°C° 0 mm 1 mps 751 mmHg 44%
14:00 +27°C° 0 mm 2 mps 751 mmHg 43%
15:00 +27°C° 0 mm 2 mps 751 mmHg 47%
16:00 +27°C° 0 mm 2 mps 751 mmHg 51%
17:00 +27°C° 0 mm 2 mps 750 mmHg 55%
18:00 +24°C° 0 mm 2 mps 751 mmHg 64%
19:00 +21°C° 0 mm 2 mps 751 mmHg 73%
20:00 +19°C° 0 mm 2 mps 751 mmHg 82%
21:00 +18°C° 0 mm 2 mps 751 mmHg 84%
22:00 +17°C° 0 mm 2 mps 751 mmHg 87%
23:00 +16°C° 0 mm 2 mps 751 mmHg 89%

19 June, Saturday

Time Temperature Precipitation Wind Pressure Humidity
00:00 +16°C° 0 mm 2 mps 751 mmHg 91%
01:00 +15°C° 0 mm 2 mps 751 mmHg 92%
02:00 +15°C° 0 mm 2 mps 752 mmHg 94%
03:00 +15°C° 0 mm 2 mps 752 mmHg 92%
04:00 +16°C° 0 mm 2 mps 752 mmHg 90%
05:00 +18°C° 0 mm 1 mps 752 mmHg 88%
06:00 +18°C° 0 mm 2 mps 752 mmHg 80%
07:00 +20°C° 0 mm 2 mps 752 mmHg 73%
08:00 +23°C° 0 mm 2 mps 752 mmHg 66%
09:00 +24°C° 0 mm 2 mps 752 mmHg 61%
10:00 +26°C° 0 mm 2 mps 752 mmHg 56%
11:00 +27°C° 0 mm 2 mps 752 mmHg 51%
12:00 +27°C° 0 mm 2 mps 751 mmHg 49%
13:00 +28°C° 0 mm 2 mps 751 mmHg 46%
14:00 +28°C° 0 mm 2 mps 751 mmHg 44%
15:00 +28°C° 0 mm 2 mps 750 mmHg 48%
16:00 +27°C° 0 mm 2 mps 750 mmHg 51%
17:00 +27°C° 0 mm 2 mps 750 mmHg 55%
18:00 +25°C° 0 mm 2 mps 750 mmHg 64%
19:00 +23°C° 0 mm 2 mps 750 mmHg 72%
20:00 +19°C° 0 mm 2 mps 750 mmHg 81%
21:00 +18°C° 0 mm 2 mps 750 mmHg 83%
22:00 +18°C° 0 mm 2 mps 750 mmHg 85%
23:00 +17°C° 0 mm 2 mps 750 mmHg 87%

20 June, Sunday

Time Temperature Precipitation Wind Pressure Humidity
00:00 +16°C° 0 mm 2 mps 750 mmHg 90%
01:00 +16°C° 0 mm 2 mps 750 mmHg 92%
02:00 +15°C° 0 mm 2 mps 750 mmHg 95%
03:00 +16°C° 0 mm 2 mps 750 mmHg 93%
04:00 +16°C° 0 mm 1 mps 751 mmHg 91%
05:00 +18°C° 0 mm 1 mps 751 mmHg 89%
06:00 +20°C° 0 mm 1 mps 751 mmHg 82%
07:00 +21°C° 0 mm 2 mps 750 mmHg 74%
08:00 +24°C° 0 mm 2 mps 750 mmHg 67%
09:00 +25°C° 0 mm 2 mps 750 mmHg 61%
10:00 +26°C° 0 mm 2 mps 750 mmHg 55%
11:00 +27°C° 0 mm 2 mps 750 mmHg 49%
12:00 +27°C° 0 mm 2 mps 749 mmHg 47%
13:00 +28°C° 0 mm 2 mps 749 mmHg 45%
14:00 +28°C° 0 mm 2 mps 749 mmHg 44%
15:00 +28°C° 0 mm 2 mps 749 mmHg 48%
16:00 +28°C° 0 mm 2 mps 748 mmHg 52%
17:00 +27°C° 0 mm 2 mps 748 mmHg 56%
18:00 +25°C° 0 mm 2 mps 748 mmHg 64%
19:00 +23°C° 0 mm 2 mps 748 mmHg 72%
20:00 +20°C° 0 mm 2 mps 748 mmHg 80%
21:00 +19°C° 0 mm 2 mps 748 mmHg 83%
22:00 +20°C° 0 mm 1 mps 748 mmHg 85%
23:00 +19°C° 0 mm 1 mps 748 mmHg 88%
Show more

We Need Your Consent

Meteoprog and our Service Providers may store and access personal data such as cookies, device identifiers or other similar technologies on your device and process such data to personalise content and ads, as well as provide social media features and to analyse the traffic.

  • Store and/or access information on your device

    Cookies, device identifiers or other information can be stored or accessed on your device for the purposes indicated above.

  • Personalised ads and content, ad and content measurement, audience insights, and products development

    Ads and content can be personalised based on a profile. More data can be added to better personalise ads and content. Ad and content performance can be measured. Insights about the audience who saw the ads and content can be derived. Such data can be used to develop or improve user’s experience, systems and software.

By clicking ‘I Agree’ you will allow the use of indicated cookies, device identifiers, web beacons or other similar technologies. Your settings can be changed in the browser on your device.

For certain purposes, legitimate interests may be relied on, rather than consent. You can read more about this in our Privacy and Cookie Policy.